Weather in Ropazi

Latvia     56°58′22″N   24°37′35″E
temp.,
°C
wind,
m/s
gust,
m/s
humid.,
%
clouds,
%
prec.,
mm/h
press.,
hPa
HPBL,
m
22 april, thu
thu2200:00+6ssw286697 0.0 1004213
03:00+5ssw4117941 0.0 1004455
06:00+4ssw4107310 0.0 1005468
09:00+7ssw595748 0.0 10051073
12:00+9ssw584170 0.0 10051996
15:00+10sw6942100 0.1 10052042
18:00+9sw5953100 0.6 10051752
21:00+5ssw486637 0.9 1005601
23 april, fri
fri2300:00+3ssw4984100 0.1 1005731
03:00+3ssw5987100 0.3 1004970
06:00+1sw51197100 1.8 1003648
09:00+2w4897100 3.4 1005593
12:00+4wnw7107891 0.8 10081247
15:00+4wnw6107598 1.6 10101338
18:00+3wnw5107799 0.3 10121206
21:00+1wnw51084100 0.5 1012988
24 april, sat
sat2400:00+1w51086100 0.2 10111026
03:000w51297100 1.3 1010761
06:00+1wnw61397100 2.4 10101293
09:00+2wnw61195100 4.1 1010993
12:00+3wnw71182100 1.4 10111379
15:00+4w71173100 2.1 10111542
18:00+2w61497100 2.1 1010875
21:00+2wnw61197100 3.3 1010952
25 april, sun
sun2500:00+1wnw51097100 0.7 1011812
03:000wnw51097100 1.6 1011957
06:000wnw51198100 1.6 10101020
09:00+1w51398100 5.4 1009817
12:00+1wnw5109899 1.9 1009562
15:00+3w4998100 2.5 1010695
18:00+1wnw51398100 1.4 1011676
21:00+1wnw5108999 2.4 1011826
26 april, mon
mon2600:000wsw499698 0.4 1011708
03:00−1sw389777 0.5 1011342
06:00−1sse2599100 0.5 1010226
09:00+1s2394100 0.7 1010364
12:00+3sse1179100 0.1 1011900
15:00+4nw228269 0.2 1012708
18:00+3nw348589 0.1 1013532
21:00−1wnw129725 0.1 101323